FW4263 Weather Reports


Display with metric or nautical units.
time (UTC)temp
F
wind
direction
speed
MPH
gust
MPH
rain 1hr
in
rain 24hr
in
rain mn
in
humidity
%
barometer
mb
20260510153000 75 167 1.0 3.0 0.00 0.00 0.00 78 1016.4
20260510152459 76 167 1.0 3.0 0.00 0.00 0.00 79 1016.3
20260510152000 75 174 1.0 2.0 0.00 0.00 0.00 78 1016.3
20260510151500 75 78 0.0 2.0 0.00 0.00 0.00 81 1016.3
20260510151002 74 206 0.0 2.0 0.00 0.00 0.00 81 1016.2
20260510150459 74 208 0.0 1.0 0.00 0.00 0.00 83 1016.3
20260510150002 73 208 0.0 1.0 0.00 0.00 0.00 84 1016.3
20260510145500 73 208 1.0 2.0 0.00 0.00 0.00 85 1016.1
20260510144959 72 208 1.0 2.0 0.00 0.00 0.00 85 1016.1
20260510144500 72 323 1.0 2.0 0.00 0.00 0.00 86 1016.1
20260510143959 72 323 0.0 2.0 0.00 0.00 0.00 88 1016.1
20260510143500 71 325 0.0 1.0 0.00 0.00 0.00 89 1016.3
20260510143000 71 325 0.0 2.0 0.00 0.00 0.00 89 1016.4
20260510141501 70 325 0.0 1.0 0.00 0.00 0.00 91 1016.3
20260510140459 69 337 0.0 2.0 0.00 0.00 0.00 92 1016.3
20260510140005 69 337 0.0 2.0 0.00 0.00 0.00 93 1016.2
20260510135000 68 327 0.0 0.0 0.00 0.00 0.00 95 1016.0
20260510134459 67 327 0.0 0.0 0.00 0.00 0.00 95 1016.0
20260510134000 67 327 0.0 0.0 0.00 0.00 0.00 95 1015.8
20260510133459 67 327 0.0 0.0 0.00 0.00 0.00 96 1015.9
20260510132959 66 327 0.0 0.0 0.00 0.00 0.00 95 1015.8
20260510132459 66 327 0.0 0.0 0.00 0.00 0.00 96 1015.9
20260510131959 65 327 0.0 0.0 0.00 0.00 0.00 96 1015.9
20260510131459 65 327 0.0 0.0 0.00 0.00 0.00 96 1015.9
20260510130959 65 327 0.0 0.0 0.00 0.00 0.00 96 1016.0
20260510130002 64 101 0.0 0.0 0.00 0.00 0.00 97 1015.9
20260510125459 64 101 0.0 0.0 0.00 0.00 0.00 97 1016.0
20260510124959 64 101 0.0 0.0 0.00 0.00 0.00 97 1015.9
20260510124459 63 101 0.0 0.0 0.00 0.00 0.00 97 1015.9
20260510124001 63 101 0.0 0.0 0.00 0.00 0.00 97 1015.7
20260510123000 62 101 0.0 0.0 0.00 0.00 0.00 97 1015.7
20260510122500 62 101 0.0 0.0 0.00 0.00 0.00 97 1015.7
20260510122000 61 101 0.0 0.0 0.00 0.00 0.00 97 1015.7
20260510121500 61 101 0.0 0.0 0.00 0.00 0.00 97 1015.6
20260510120959 61 101 0.0 0.0 0.00 0.00 0.00 97 1015.5
20260510120500 60 101 0.0 1.0 0.00 0.00 0.00 97 1015.5
20260510115500 60 318 0.0 0.0 0.00 0.00 0.00 97 1015.3
20260510115000 59 318 0.0 0.0 0.00 0.00 0.00 97 1015.4
20260510114501 59 318 0.0 0.0 0.00 0.00 0.00 96 1015.4
20260510113959 59 318 0.0 0.0 0.00 0.00 0.00 96 1015.4
20260510113459 58 318 0.0 0.0 0.00 0.00 0.00 96 1015.3
20260510112959 58 318 0.0 1.0 0.00 0.00 0.00 95 1015.1
20260510112500 58 318 0.0 1.0 0.00 0.00 0.00 95 1015.0
20260510111959 58 5 0.0 0.0 0.00 0.00 0.00 95 1014.9
20260510111459 58 5 0.0 0.0 0.00 0.00 0.00 95 1014.8
20260510110959 58 5 0.0 1.0 0.00 0.00 0.00 95 1014.7
20260510110500 58 5 0.0 1.0 0.00 0.00 0.00 95 1014.5
20260510110003 58 217 0.0 0.0 0.00 0.00 0.00 95 1014.5
20260510105459 58 217 0.0 0.0 0.00 0.00 0.00 95 1014.4
20260510105003 58 217 0.0 0.0 0.00 0.00 0.00 94 1014.3
20260510103959 58 309 0.0 0.0 0.00 0.00 0.00 94 1014.1
20260510102959 58 309 0.0 0.0 0.00 0.00 0.00 94 1013.9
20260510102000 58 309 0.0 0.0 0.00 0.00 0.00 93 1013.9
20260510101500 58 309 0.0 0.0 0.00 0.00 0.00 93 1013.9
20260510100959 58 309 0.0 0.0 0.00 0.00 0.00 92 1013.9
20260510100500 58 309 0.0 0.0 0.00 0.00 0.00 92 1013.9
20260510100003 58 309 0.0 0.0 0.00 0.00 0.00 92 1013.8
20260510095001 58 309 0.0 0.0 0.00 0.00 0.00 92 1013.6
20260510093959 57 309 0.0 0.0 0.00 0.00 0.00 91 1013.6
20260510093459 57 309 0.0 0.0 0.00 0.00 0.00 91 1013.6
20260510093001 57 309 0.0 0.0 0.00 0.00 0.00 91 1013.5
20260510092459 57 309 0.0 0.0 0.00 0.00 0.00 90 1013.6
20260510092000 57 309 0.0 0.0 0.00 0.00 0.00 90 1013.5
20260510091501 57 309 0.0 0.0 0.00 0.00 0.00 90 1013.5
20260510090959 57 309 0.0 0.0 0.00 0.00 0.00 89 1013.5
20260510090002 57 309 0.0 1.0 0.00 0.00 0.00 88 1013.4
20260510085459 57 309 1.0 1.0 0.00 0.00 0.00 88 1013.5
20260510085000 57 309 1.0 2.0 0.00 0.00 0.00 88 1013.5
20260510084500 57 309 0.0 2.0 0.00 0.00 0.00 88 1013.4
20260510083959 57 309 0.0 1.0 0.00 0.00 0.00 87 1013.5
20260510083459 56 309 0.0 0.0 0.00 0.00 0.00 88 1013.4
20260510083000 56 309 0.0 0.0 0.00 0.00 0.00 87 1013.4
20260510082500 56 309 0.0 0.0 0.00 0.00 0.00 88 1013.4
20260510080959 56 309 0.0 1.0 0.00 0.00 0.00 87 1013.2
20260510080500 56 309 0.0 1.0 0.00 0.00 0.00 87 1013.0
20260510080003 56 309 0.0 0.0 0.00 0.00 0.00 87 1012.9
20260510075459 56 309 0.0 0.0 0.00 0.00 0.00 87 1013.0
20260510075000 57 309 0.0 0.0 0.00 0.00 0.00 87 1013.1
20260510074459 57 309 0.0 0.0 0.00 0.00 0.00 88 1012.8
20260510073459 57 309 0.0 0.0 0.00 0.00 0.00 86 1012.8
20260510072959 57 309 0.0 0.0 0.00 0.00 0.00 85 1012.9
20260510072459 57 309 0.0 0.0 0.00 0.00 0.00 86 1013.0
20260510071959 57 309 0.0 1.0 0.00 0.00 0.00 87 1013.1
20260510071500 57 309 0.0 1.0 0.00 0.00 0.00 86 1013.2
20260510071000 57 309 0.0 1.0 0.00 0.00 0.00 87 1013.2
20260510070500 57 309 0.0 0.0 0.00 0.00 0.00 86 1013.2
20260510070003 57 309 0.0 0.0 0.00 0.00 0.00 87 1013.2
20260510065459 57 309 0.0 1.0 0.00 0.00 0.00 86 1013.3
20260510064959 57 309 0.0 1.0 0.00 0.00 0.00 86 1013.1
20260510064459 57 309 0.0 1.0 0.00 0.00 0.00 85 1013.3
20260510063959 58 309 0.0 0.0 0.00 0.00 0.00 86 1013.3
20260510063458 58 309 0.0 0.0 0.00 0.00 0.00 85 1013.1
20260510063000 58 309 0.0 0.0 0.00 0.00 0.00 85 1013.0
20260510062000 57 309 0.0 0.0 0.00 0.00 0.00 84 1012.8
20260510061000 58 309 0.0 1.0 0.00 0.00 0.00 84 1012.7
20260510060459 58 309 0.0 1.0 0.00 0.00 0.00 85 1012.7
20260510060003 58 309 0.0 0.0 0.00 0.00 0.00 83 1012.7
20260510055459 58 309 0.0 0.0 0.00 0.00 0.00 83 1012.7
20260510054959 58 309 0.0 0.0 0.00 0.00 0.00 84 1012.7
20260510053958 58 309 0.0 0.0 0.00 0.00 0.00 85 1012.7
20260510053458 58 309 0.0 0.0 0.00 0.00 0.00 85 1012.6
20260510052958 58 309 0.0 0.0 0.00 0.00 0.00 86 1012.6
20260510052459 58 309 0.0 0.0 0.00 0.00 0.00 84 1012.6
20260510051959 58 309 0.0 0.0 0.00 0.00 0.00 84 1012.6
20260510051500 58 309 0.0 0.0 0.00 0.00 0.00 84 1012.6
20260510051000 58 309 0.0 0.0 0.00 0.00 0.00 85 1012.6
20260510050459 59 309 0.0 0.0 0.00 0.00 0.00 84 1012.6
20260510045502 59 309 0.0 0.0 0.00 0.00 0.00 83 1012.6
20260510045002 59 309 0.0 1.0 0.00 0.00 0.00 84 1012.6
20260510044000 59 309 0.0 0.0 0.00 0.00 0.00 85 1012.5
20260510043503 59 309 0.0 0.0 0.00 0.00 0.00 85 1012.6
20260510043002 59 309 0.0 0.0 0.00 0.00 0.00 84 1012.5
20260510042000 59 309 0.0 0.0 0.00 0.00 0.00 83 1012.5
20260510041500 59 309 0.0 1.0 0.00 0.00 0.00 83 1012.5
20260510041000 59 309 0.0 1.0 0.00 0.00 0.00 82 1012.5
20260510040502 59 309 0.0 1.0 0.00 0.00 0.00 81 1012.4
20260510040005 60 309 0.0 1.0 0.00 0.00 0.00 82 1012.5
20260510035500 60 309 0.0 0.0 0.00 0.00 0.00 82 1012.5
20260510035002 60 309 0.0 0.0 0.00 0.00 0.00 82 1012.5
20260510034500 60 309 0.0 0.0 0.00 0.00 0.00 81 1012.6
20260510034001 60 309 0.0 0.0 0.00 0.00 0.00 80 1012.6
20260510032501 61 309 0.0 0.0 0.00 0.00 0.00 78 1012.6
20260510032002 61 309 0.0 1.0 0.00 0.00 0.00 79 1012.7
20260510031502 61 309 0.0 1.0 0.00 0.00 0.00 79 1012.6
20260510031000 61 309 0.0 1.0 0.00 0.00 0.00 77 1012.6
20260510030502 61 309 0.0 1.0 0.00 0.00 0.00 79 1012.6
20260510030003 62 309 0.0 1.0 0.00 0.00 0.00 77 1012.6
20260510025502 62 309 0.0 1.0 0.00 0.00 0.00 79 1012.5
20260510025001 62 309 0.0 1.0 0.00 0.00 0.00 77 1012.6
20260510024502 62 309 0.0 1.0 0.00 0.00 0.00 77 1012.5
20260510024001 63 309 0.0 1.0 0.00 0.00 0.00 77 1012.4
20260510023503 63 309 0.0 1.0 0.00 0.00 0.00 76 1012.4
20260510023004 63 309 0.0 0.0 0.00 0.00 0.00 76 1012.4
20260510021500 64 309 0.0 0.0 0.00 0.00 0.00 76 1012.2
20260510021002 64 309 0.0 0.0 0.00 0.00 0.00 71 1012.2
20260510020006 65 309 0.0 0.0 0.00 0.00 0.00 71 1012.0
20260510015501 65 309 0.0 0.0 0.00 0.00 0.00 73 1011.9
20260510014501 66 309 0.0 1.0 0.00 0.00 0.00 75 1011.8
20260510014001 66 309 0.0 1.0 0.00 0.00 0.00 73 1011.8
20260510013502 66 309 0.0 1.0 0.00 0.00 0.00 73 1011.7
20260510013002 67 309 0.0 0.0 0.00 0.00 0.00 72 1011.7
20260510012502 67 309 0.0 1.0 0.00 0.00 0.00 73 1011.7
20260510012001 68 309 0.0 1.0 0.00 0.00 0.00 72 1011.6
20260510011500 68 309 0.0 1.0 0.00 0.00 0.00 70 1011.5
20260510011000 69 309 0.0 1.0 0.00 0.00 0.00 70 1011.5
20260510010502 69 309 0.0 1.0 0.00 0.00 0.00 70 1011.4
20260510010006 70 309 0.0 1.0 0.00 0.00 0.00 67 1011.3
20260510005000 71 309 0.0 1.0 0.00 0.00 0.00 67 1011.2
20260510004502 71 309 0.0 1.0 0.00 0.00 0.00 66 1011.1
20260510004000 72 309 0.0 1.0 0.00 0.00 0.00 64 1011.0
20260510003002 73 140 0.0 1.0 0.00 0.00 0.00 62 1010.9
20260510002501 73 140 0.0 0.0 0.00 0.00 0.00 61 1010.8
20260510002001 73 140 0.0 0.0 0.00 0.00 0.00 60 1010.7
20260510001503 74 140 0.0 1.0 0.00 0.00 0.00 57 1010.7
20260510001000 74 140 0.0 1.0 0.00 0.00 0.00 58 1010.7
20260510000501 74 140 0.0 0.0 0.00 0.00 0.00 58 1010.6
20260510000005 75 140 0.0 0.0 0.00 0.00 0.00 56 1010.5
20260509235500 75 140 0.0 0.0 0.00 0.00 0.00 58 1010.5
20260509234500 76 163 0.0 1.0 0.00 0.00 0.00 55 1010.3
20260509234001 76 163 0.0 1.0 0.00 0.00 0.00 54 1010.3
20260509233501 76 163 0.0 1.0 0.00 0.00 0.00 53 1010.3
20260509233002 77 163 0.0 0.0 0.00 0.00 0.00 54 1010.3
20260509232502 77 163 0.0 0.0 0.00 0.00 0.00 51 1010.3
20260509232000 77 163 0.0 1.0 0.00 0.00 0.00 51 1010.2
20260509231500 77 163 0.0 1.0 0.00 0.00 0.00 48 1010.2
20260509231000 77 163 0.0 1.0 0.00 0.00 0.00 49 1010.2
20260509230500 78 163 0.0 1.0 0.00 0.00 0.00 49 1010.1
20260509230004 78 163 0.0 1.0 0.00 0.00 0.00 48 1010.0
20260509225502 78 163 0.0 1.0 0.00 0.00 0.00 43 1010.1
20260509225000 78 163 0.0 1.0 0.00 0.00 0.00 47 1010.1
20260509224502 78 163 0.0 1.0 0.00 0.00 0.00 45 1010.1
20260509224000 78 163 0.0 1.0 0.00 0.00 0.00 42 1010.0
20260509223500 78 163 0.0 2.0 0.00 0.00 0.00 45 1010.1
20260509223000 78 163 0.0 1.0 0.00 0.00 0.00 43 1010.1
20260509222500 78 163 0.0 1.0 0.00 0.00 0.00 47 1010.2
20260509222002 78 163 0.0 2.0 0.00 0.00 0.00 45 1010.2
20260509221502 79 163 0.0 1.0 0.00 0.00 0.00 43 1010.3
20260509220500 79 163 0.0 1.0 0.00 0.00 0.00 46 1010.2
20260509220003 79 163 0.0 1.0 0.00 0.00 0.00 44 1010.3
20260509215500 79 163 0.0 1.0 0.00 0.00 0.00 46 1010.2
20260509215001 79 163 0.0 0.0 0.00 0.00 0.00 44 1010.4
20260509214502 79 162 0.0 1.0 0.00 0.00 0.00 45 1010.4
20260509214000 80 162 0.0 1.0 0.00 0.00 0.00 41 1010.5
20260509213000 80 162 1.0 2.0 0.00 0.00 0.00 41 1010.5
20260509212500 80 162 1.0 2.0 0.00 0.00 0.00 42 1010.4
20260509211501 80 154 1.0 2.0 0.00 0.00 0.00 43 1010.4
20260509211001 81 154 2.0 5.0 0.00 0.00 0.00 41 1010.5
20260509210501 81 154 1.0 5.0 0.00 0.00 0.00 40 1010.5
20260509210004 82 153 1.0 3.0 0.00 0.00 0.00 39 1010.5
20260509205501 82 105 1.0 2.0 0.00 0.00 0.00 41 1010.5
20260509205001 82 51 1.0 2.0 0.00 0.00 0.00 40 1010.5
20260509204501 83 160 1.0 3.0 0.00 0.00 0.00 43 1010.4
20260509203501 82 17 0.0 2.0 0.00 0.00 0.00 41 1010.5
20260509203000 82 122 0.0 2.0 0.00 0.00 0.00 41 1010.4
20260509201501 82 203 1.0 3.0 0.00 0.00 0.00 42 1010.6
20260509201000 82 350 1.0 3.0 0.00 0.00 0.00 47 1010.5
20260509200503 82 347 1.0 3.0 0.00 0.00 0.00 44 1010.7
20260509195501 81 212 1.0 3.0 0.00 0.00 0.00 46 1010.7
20260509195000 81 144 1.0 3.0 0.00 0.00 0.00 45 1010.7
20260509194500 81 219 1.0 3.0 0.00 0.00 0.00 42 1010.6
20260509194000 82 213 1.0 3.0 0.00 0.00 0.00 44 1010.8
20260509193500 82 346 1.0 4.0 0.00 0.00 0.00 48 1010.7
20260509193003 82 346 1.0 4.0 0.00 0.00 0.00 44 1010.7
20260509192501 82 148 1.0 3.0 0.00 0.00 0.00 48 1010.8
20260509192001 81 164 1.0 4.0 0.00 0.00 0.00 50 1010.7
20260509191500 81 360 1.0 4.0 0.00 0.00 0.00 46 1010.7
20260509191001 81 38 1.0 3.0 0.00 0.00 0.00 47 1010.8
20260509190500 81 38 1.0 3.0 0.00 0.00 0.00 46 1010.9
20260509190006 81 25 1.0 3.0 0.00 0.00 0.00 53 1010.8
20260509185500 80 115 1.0 5.0 0.00 0.00 0.00 50 1010.8
20260509185000 80 153 2.0 5.0 0.00 0.00 0.00 47 1011.0
20260509184501 80 157 2.0 4.0 0.00 0.00 0.00 53 1011.0
20260509184000 80 178 1.0 4.0 0.00 0.00 0.00 54 1011.0
20260509183501 79 163 1.0 3.0 0.00 0.00 0.00 51 1011.1
20260509183001 79 34 1.0 4.0 0.00 0.00 0.00 53 1011.1
20260509182500 79 126 1.0 4.0 0.00 0.00 0.00 55 1011.2
20260509182000 79 140 1.0 4.0 0.00 0.00 0.00 50 1011.3
20260509181500 79 291 1.0 4.0 0.00 0.00 0.00 55 1011.3
20260509181000 79 109 1.0 3.0 0.00 0.00 0.00 55 1011.3
20260509180500 79 39 1.0 4.0 0.00 0.00 0.00 56 1011.4
20260509180004 79 351 1.0 4.0 0.00 0.00 0.00 53 1011.3
20260509175501 78 193 1.0 3.0 0.00 0.00 0.00 56 1011.4
20260509175002 78 193 1.0 3.0 0.00 0.00 0.00 52 1011.4
20260509174500 78 188 1.0 2.0 0.00 0.00 0.00 56 1011.4
20260509174001 78 189 1.0 3.0 0.00 0.00 0.00 58 1011.3
20260509173500 78 111 1.0 3.0 0.00 0.00 0.00 54 1011.3
20260509172500 77 146 1.0 4.0 0.00 0.00 0.00 57 1011.3
20260509172000 77 100 1.0 4.0 0.00 0.00 0.00 59 1011.3
20260509171501 76 200 1.0 3.0 0.00 0.00 0.00 62 1011.4
20260509171000 76 198 1.0 3.0 0.00 0.00 0.00 65 1011.5
20260509170503 76 197 1.0 2.0 0.00 0.00 0.00 65 1011.4
20260509170003 75 182 1.0 3.0 0.00 0.00 0.00 63 1011.5
20260509165001 75 217 1.0 2.0 0.00 0.00 0.00 62 1011.6
20260509164500 74 217 1.0 2.0 0.00 0.00 0.00 69 1011.6
20260509164000 74 217 1.0 3.0 0.00 0.00 0.00 65 1011.5
20260509163500 74 221 1.0 3.0 0.00 0.00 0.00 64 1011.4
20260509163001 74 63 1.0 3.0 0.00 0.00 0.00 72 1011.4
20260509162500 73 130 1.0 3.0 0.00 0.00 0.00 67 1011.4
20260509162000 73 179 1.0 3.0 0.00 0.00 0.00 67 1011.3
20260509161500 73 315 1.0 3.0 0.00 0.00 0.00 73 1011.3
20260509161001 72 207 1.0 3.0 0.00 0.00 0.00 70 1011.2
20260509160501 72 207 1.0 3.0 0.00 0.00 0.00 70 1011.3
20260509160002 72 222 1.0 2.0 0.00 0.00 0.00 69 1011.2
20260509155501 72 304 1.0 3.0 0.00 0.00 0.00 72 1011.2
20260509154502 72 229 2.0 6.0 0.00 0.00 0.00 72 1011.0
20260509154000 72 185 2.0 6.0 0.00 0.00 0.00 73 1011.0
20260509153459 72 112 1.0 3.0 0.00 0.00 0.00 74 1011.0